Charlottesville, VA

9:37 PM EDT on July 23, 2017 (GMT -0400)
Charlottesville-Albemarle

Weather History for KCHO - December, 2010

Change the Weather History Date:

Tuesday, December 21, 2010

  Actual Average Record
Temperature  
Mean Temperature 34 °F 36 °F  
Max Temperature 40 °F 45 °F 74 °F (1923)
Min Temperature 27 °F 27 °F 7 °F (1901)
Degree Days  
Heating Degree Days 31 29  
Month to date heating degree days 700 551  
Since 1 July heating degree days 1407 1442  
Cooling Degree Days 0 0  
Month to date cooling degree days 0 0  
Year to date cooling degree days 1713 1035  
Moisture  
Dew Point 17 °F    
Average Humidity 50    
Maximum Humidity 63    
Minimum Humidity 37    
Precipitation  
Precipitation 0.00 in 0.10 in 2.41 in (1973)
Month to date precipitation 2.21 2.36  
Year to date precipitation 35.43 41.92  
Sea Level Pressure  
Sea Level Pressure 30.04 in    
Wind  
Wind Speed 2 mph (West)    
Max Wind Speed 8 mph    
Max Gust Speed 15 mph    
Visibility 10 miles    
Events      
T = Trace of Precipitation, MM = Missing Value Source: NWS Daily Summary

Daily Weather History Graph

Daily Weather History Graph

Search for Another Location

Airport or City:

Trip Planner

Search our weather history database for the weather conditions in past years. The results will help you decide how hot, cold, wet, or windy it might be!

Date:

Astronomy

Dec. 21, 2010 Rise Set
Actual Time 7:26 AM EST 4:57 PM EST
Civil Twilight 6:56 AM EST 5:26 PM EST
Nautical Twilight 6:23 AM EST 6:00 PM EST
Astronomical Twilight 5:51 AM EST 6:32 PM EST
Moon 5:28 PM EST (12/21) 7:41 AM EST (12/21)
Length of Visible Light 10h 30m
Length of Day
9h 30m
Full, 100% of the Moon is Illuminated
Dec 21
Full
Dec 27
Last Quarter
Jan 4
New
Jan 12
First Quarter
Jan 19
Full

Hourly Weather History & Observations

Time (EST) Temp. Windchill Dew Point Humidity Pressure Visibility Wind Dir Wind Speed Gust Speed Precip Events Conditions
12:53 AM 30.0 °F 25.2 °F 15.1 °F 54% 30.11 in 10.0 mi West 4.6 mph - N/A   Clear
1:53 AM 28.9 °F - 15.1 °F 56% 30.09 in 10.0 mi Calm Calm - N/A   Clear
2:53 AM 28.9 °F - 16.0 °F 58% 30.10 in 10.0 mi Calm Calm - N/A   Clear
3:53 AM 28.9 °F - 16.0 °F 58% 30.08 in 10.0 mi Calm Calm - N/A   Clear
4:53 AM 28.9 °F - 16.0 °F 58% 30.08 in 10.0 mi Calm Calm - N/A   Clear
5:53 AM 28.9 °F 25.2 °F 16.0 °F 58% 30.08 in 10.0 mi WNW 3.5 mph - N/A   Mostly Cloudy
6:53 AM 28.0 °F - 17.1 °F 63% 30.09 in 10.0 mi Calm Calm - N/A   Mostly Cloudy
7:53 AM 27.0 °F - 15.1 °F 61% 30.08 in 10.0 mi Calm Calm - N/A   Clear
8:53 AM 30.9 °F 27.5 °F 15.1 °F 52% 30.08 in 10.0 mi SSW 3.5 mph - N/A   Partly Cloudy
9:53 AM 35.1 °F 30.1 °F 15.1 °F 44% 30.09 in 10.0 mi Variable 5.8 mph - N/A   Clear
10:53 AM 35.1 °F 32.2 °F 15.1 °F 44% 30.09 in 10.0 mi West 3.5 mph - N/A   Mostly Cloudy
11:53 AM 36.0 °F - 16.0 °F 44% 30.05 in 10.0 mi Calm Calm - N/A   Overcast
12:53 PM 36.0 °F 33.3 °F 17.1 °F 46% 30.02 in 10.0 mi Variable 3.5 mph - N/A   Overcast
1:53 PM 37.9 °F 35.5 °F 17.1 °F 43% 29.98 in 10.0 mi West 3.5 mph - N/A   Mostly Cloudy
2:53 PM 39.0 °F 35.7 °F 16.0 °F 39% 29.99 in 10.0 mi West 4.6 mph - N/A   Mostly Cloudy
3:53 PM 39.9 °F 34.5 °F 16.0 °F 38% 29.99 in 10.0 mi West 8.1 mph - N/A   Scattered Clouds
4:53 PM 37.9 °F - 16.0 °F 41% 30.00 in 10.0 mi Calm Calm - N/A   Overcast
5:53 PM 36.0 °F 32.1 °F 17.1 °F 46% 30.01 in 10.0 mi WNW 4.6 mph - N/A   Mostly Cloudy
6:53 PM 37.9 °F - 16.0 °F 41% 30.01 in 10.0 mi Calm Calm - N/A   Overcast
7:53 PM 37.0 °F - 18.0 °F 46% 29.99 in 10.0 mi Calm Calm - N/A   Overcast
8:53 PM 37.0 °F - 18.0 °F 46% 30.00 in 10.0 mi Calm Calm - N/A   Overcast
9:53 PM 35.1 °F - 23.0 °F 61% 29.99 in 10.0 mi Calm Calm - N/A   Overcast
10:53 PM 36.0 °F 33.3 °F 21.0 °F 55% 29.99 in 10.0 mi SW 3.5 mph - N/A   Overcast
11:53 PM 35.1 °F - 24.1 °F 64% 29.98 in 10.0 mi Calm Calm - N/A   Overcast